Simultaneous Nadir Overpasses (SNOs) Predictions

Prediction of SNOs between GOES-16 and AQUA Satellite Orbit:

Table of predicted SNOs for the next 14.0 days since TLE Epoch: 9/23/2023
Index Date Time (GOES-16) GOES-16 Lat,Lon AQUA Lat,Lon Distance(km) Time Diff (sec)
1 09/23/2023 06:53:57 0.06, -75.21 -0.09, -74.63 66.51 80
2 09/25/2023 06:36:42 0.05, -75.22 -0.82, -71.07 471.45 80
3 09/25/2023 18:57:29 -0.04, -75.22 -0.24, -76.10 100.67 80
4 09/27/2023 18:45:34 -0.04, -75.24 0.56, -72.55 305.90 80
5 09/28/2023 07:03:31 0.03, -75.24 0.52, -77.55 261.95 80
6 09/30/2023 06:48:55 0.04, -75.27 -0.23, -73.98 146.26 80
7 09/30/2023 19:09:41 -0.03, -75.27 -0.80, -79.02 425.26 80
8 10/02/2023 18:55:03 -0.04, -75.30 -0.06, -75.44 16.01 80
9 10/04/2023 18:43:04 -0.03, -75.33 0.68, -71.86 393.90 80
10 10/05/2023 07:03:42 0.03, -75.34 0.35, -76.87 173.07 80
